User: anonymous   Login
Location: Unspecified
(0.0000°N, 0.0000°E)
Time: 21:34:12
(UTC+02:00)
Language:

Iridium 12 - Orbit

View from above orbital plane
View from above orbital plane
View from above satellite
View from above satellite

Ground track
Ground track

The orbit data is extracted from the following two-line orbital elements,

1 24837U 97030B   18202.44947913 -.00000037  00000-0 -18484-4 0  9998
2 24837  86.4244 183.2061 0002224  83.8243  26.9160 14.38602142104227
Epoch (UTC): 21 July 2018 10:47:14
Eccentricity: 0.0002224
inclination: 86.4244°
perigee height: 761 km
apogee height: 765 km
right ascension of ascending node: 183.2061°
argument of perigee: 83.8243°
revolutions per day: 14.38602142
mean anomaly at epoch: 26.9160°
orbit number at epoch: 10422

The dashed part of the orbit path shows where the satellite is in the earth's shadow,  

DLR